Wind_Speed
2 4 5 6 9 13 16 21 23 24 24 23 22 19 19 20 22 24 26 28 30 32 33 34 35 36 37 38 39 40 41 43 44 45 46 46 47 48 48 48 49 50 51 52
3 1 1 6 10 14 17 20 23 24 26 26 26 24 23 23 24 25 27 29 30 31 32 33 34 36 37 37 38 39 40 41 42 43 43 44 45 46 46 47 48 49 49 49
3 1 4 8 10 12 15 18 21 24 25 27 27 26 26 25 25 26 27 28 29 30 31 32 33 33 34 35 37 37 38 38 39 40 40 41 41 43 44 45 46 47 47 47
3 3 6 8 10 13 15 17 21 23 26 27 27 27 27 27 26 26 26 27 28 29 30 30 30 32 33 34 34 34 35 35 36 36 37 38 39 40 41 42 43 43 44 45
6 7 9 11 12 15 17 18 20 21 23 24 25 26 26 25 25 25 26 26 26 26 26 26 27 27 29 29 30 31 31 32 33 33 34 34 35 36 37 38 39 40 41 42
7 9 10 12 14 16 18 17 18 19 20 21 22 21 21 21 21 22 22 23 23 23 23 24 24 25 25 26 26 27 27 28 28 29 30 31 32 33 34 34 36 36 37 39
10 11 12 14 16 17 17 17 18 18 17 17 17 17 17 17 17 18 18 19 19 19 20 21 21 22 22 23 23 24 24 24 25 25 26 27 28 29 30 31 31 33 34 35
11 12 14 16 16 16 16 17 16 15 14 14 13 13 13 13 13 14 14 15 15 16 16 17 18 19 19 19 20 20 21 22 22 23 23 23 24 25 26 27 28 29 29 29
12 13 14 15 15 15 15 14 14 12 11 11 10 10 11 11 11 12 12 13 13 13 14 15 15 16 17 17 18 18 18 19 19 19 20 21 22 23 23 24 24 24 23 22
12 14 15 15 15 15 14 14 13 12 10 10 9 9 9 9 9 9 10 11 12 12 13 14 15 15 15 15 15 15 15 16 16 17 18 19 19 20 20 19 19 18 18 17
13 15 16 16 16 16 15 14 13 12 11 10 9 8 8 8 8 9 10 11 12 12 13 13 13 14 14 14 14 14 14 14 15 16 16 16 17 16 15 15 15 14 13 12
14 16 17 17 17 17 16 14 13 12 11 10 9 8 8 8 8 9 9 10 11 12 12 12 12 12 12 13 13 13 13 13 14 14 14 14 13 12 12 12 12 11 10 10
14 16 17 18 18 18 16 15 14 12 11 10 9 9 9 9 9 9 10 10 10 11 11 12 12 12 12 12 12 12 13 12 13 12 11 11 10 10 10 10 9 8 8 8
14 16 17 18 18 18 17 15 14 13 11 10 10 9 9 10 10 10 10 11 11 11 12 12 12 12 12 12 11 11 11 11 10 10 9 8 8 8 8 7 7 6 6 7
13 15 17 18 18 18 17 15 14 13 12 11 10 10 11 11 12 12 11 11 12 12 12 12 12 11 11 10 10 9 9 9 8 8 7 7 6 6 6 6 6 5 5 6
13 15 17 17 18 18 17 16 15 13 12 11 11 11 12 13 13 13 12 12 12 12 12 11 11 10 9 8 8 7 7 7 6 6 6 5 5 5 5 5 4 4 5 5
12 14 16 17 18 18 17 16 15 14 13 12 12 12 13 14 14 14 13 13 13 13 12 11 10 9 8 7 6 6 6 6 5 5 5 4 4 4 4 4 3 4 4 5
11 14 15 17 18 18 17 16 15 14 13 12 13 13 14 14 15 15 15 15 14 14 13 12 11 9 8 7 6 5 5 5 5 4 4 3 3 3 3 3 3 3 3 4
11 13 15 16 17 18 17 16 16 15 14 13 13 14 15 15 16 16 16 16 15 14 14 13 11 10 9 7 6 5 5 5 4 4 3 3 3 3 3 3 3 3 4 4
10 12 14 16 17 17 17 17 16 15 14 13 14 14 15 16 16 17 17 17 17 16 15 14 13 11 9 7 6 5 5 4 4 4 3 3 3 3 3 3 3 4 4 5
9 11 13 15 16 16 16 16 16 15 14 14 14 14 15 16 17 17 17 18 18 17 17 16 14 12 9 8 6 5 4 4 3 3 3 3 3 3 3 4 4 5 5 5
8 10 12 14 15 16 16 16 16 15 14 14 14 14 15 16 17 17 18 18 18 18 17 16 15 14 12 10 9 7 5 4 4 3 3 2 3 3 3 4 4 4 5 5
8 10 11 13 14 15 15 15 15 15 14 14 14 14 14 15 16 17 17 18 18 18 18 18 17 16 15 14 11 9 8 7 6 5 4 3 3 3 4 4 4 4 4 5
9 10 11 12 13 14 14 15 15 15 14 14 14 14 14 15 15 16 17 18 18 18 18 18 18 17 16 14 12 11 10 9 8 7 6 5 5 5 4 4 4 4 4 4
10 10 11 12 13 13 14 14 14 14 14 14 13 13 14 14 15 16 17 17 18 18 18 17 17 17 16 14 13 13 12 11 10 9 8 8 7 7 6 5 5 5 5 6
12 11 12 12 12 13 13 13 13 13 13 13 13 13 13 14 14 14 15 16 16 17 17 17 17 17 16 15 15 15 14 13 12 10 10 10 9 9 8 8 7 7 7 7
14 13 13 12 12 12 12 13 13 13 13 13 12 12 12 13 13 13 14 14 15 15 16 16 16 16 17 17 16 15 14 14 13 13 12 11 11 11 10 10 9 9 9 9
Wind_Direction
111 146 158 191 223 228 230 229 235 245 260 268 268 266 265 266 265 262 261 260 259 260 262 262 263 263 265 266 268 270 272 273 275 277 278 280 282 283 284 285 286 286 286 286
63 47 231 242 246 243 240 243 249 255 262 269 276 280 276 271 269 268 265 264 264 264 266 266 266 267 268 269 270 271 273 274 276 278 279 280 281 282 283 284 285 285 284 286
46 355 277 272 268 264 262 259 259 263 267 269 276 279 279 276 273 270 268 267 267 266 267 268 268 268 269 270 271 272 274 275 277 278 279 280 281 283 284 285 285 285 287 289
27 334 296 294 290 283 281 278 274 273 274 277 277 278 278 276 273 271 267 266 268 269 271 271 271 271 271 273 274 274 275 277 278 280 282 283 284 285 286 287 289 291 293 295
5 320 302 303 302 298 296 294 287 283 280 280 278 277 276 273 271 270 268 269 271 272 273 273 273 273 274 275 275 275 276 279 281 282 284 286 288 289 291 293 295 297 298 298
345 326 314 309 311 308 305 303 296 292 288 286 283 279 276 274 272 272 270 270 270 271 272 273 274 275 276 277 278 279 280 282 284 285 288 290 292 294 296 298 300 301 301 302
339 330 329 321 319 315 312 308 304 299 293 291 289 284 281 280 277 276 275 274 275 275 275 275 277 277 279 279 281 283 285 287 289 291 294 296 297 299 300 302 303 305 306 307
342 338 331 328 325 322 318 315 313 308 302 298 295 291 287 285 283 281 280 279 280 280 279 279 281 283 283 284 285 286 288 291 293 295 297 299 301 303 305 308 310 311 313 314
346 342 338 336 334 331 327 325 323 320 316 312 305 299 294 291 289 289 288 286 284 284 285 287 287 288 289 288 288 289 291 293 295 298 301 304 307 310 312 314 316 318 320 322
350 348 347 345 344 342 338 336 335 333 329 326 320 311 306 306 302 298 296 294 292 292 291 290 289 291 293 293 294 295 296 299 302 304 308 311 313 315 318 320 322 325 329 332
357 355 353 352 351 350 347 344 343 340 338 334 329 325 319 314 309 305 302 298 298 299 298 296 295 296 295 295 297 298 300 303 306 308 311 314 317 321 325 329 333 337 342 349
1 360 358 357 355 354 352 349 346 343 342 341 338 334 332 328 323 318 315 313 312 311 308 305 303 301 298 296 298 299 300 302 304 307 311 316 322 329 336 342 348 353 0 8
3 2 1 359 358 357 355 354 352 349 347 347 347 345 343 340 336 332 328 326 323 321 317 312 308 303 300 298 296 296 297 299 302 307 313 321 330 338 344 349 355 4 15 23
3 2 2 1 360 359 359 358 357 356 356 357 357 355 352 348 343 339 335 332 328 325 321 318 313 308 303 299 296 296 298 300 302 308 315 324 333 341 349 356 3 14 23 29
3 3 3 3 2 2 3 3 2 3 4 4 4 2 357 352 348 345 340 336 334 330 326 323 320 317 312 305 299 298 299 301 304 309 316 325 334 342 352 1 9 21 30 32
3 4 4 4 3 4 5 6 7 8 9 9 7 4 360 357 354 351 349 345 339 336 332 329 326 322 319 311 304 301 299 301 305 312 319 330 338 343 351 2 13 24 32 32
1 3 4 5 4 5 7 9 10 11 10 10 8 5 2 0 359 358 355 351 348 345 342 338 334 330 325 319 308 302 299 301 306 311 319 330 339 342 351 7 18 24 28 27
359 1 2 3 4 6 8 10 11 11 12 11 10 7 6 5 5 3 1 359 357 354 351 348 344 340 334 327 320 311 305 304 305 307 311 318 330 340 351 2 6 9 11 10
353 357 0 2 4 6 9 10 11 12 12 12 11 9 9 9 8 7 6 5 3 0 358 357 353 349 341 332 326 323 318 313 312 309 310 311 313 321 333 343 345 346 349 352
346 352 357 0 3 6 9 11 12 13 13 12 11 11 11 11 10 10 9 9 9 9 8 6 1 357 353 346 339 330 323 317 316 311 309 311 312 314 319 327 332 336 340 342
337 346 352 357 1 4 7 10 11 13 13 13 13 12 12 12 12 13 13 14 15 16 16 14 12 12 11 8 4 352 342 334 329 324 315 311 312 314 315 315 319 322 327 334
326 338 346 352 357 1 5 7 9 11 12 13 14 13 13 14 14 15 17 18 19 20 20 20 22 25 26 26 22 16 15 14 9 1 349 338 334 331 327 325 328 329 328 333
314 329 339 347 353 358 1 5 7 8 10 12 13 13 13 14 15 15 18 20 20 21 23 24 26 29 31 31 29 30 33 33 32 29 23 14 6 358 352 348 346 345 344 348
301 318 330 340 347 352 357 360 3 5 7 9 11 12 13 13 14 16 18 20 21 23 24 26 27 29 31 30 31 35 36 37 36 35 32 26 19 14 12 10 6 5 10 14
289 305 319 330 338 345 351 354 357 0 3 5 7 9 10 11 13 16 19 21 22 24 25 27 29 31 32 31 35 37 37 38 38 39 38 36 34 32 33 34 34 36 39 40
279 293 307 318 328 336 342 347 351 354 357 360 2 4 6 8 11 14 17 19 21 24 25 27 30 32 32 35 38 39 39 40 42 43 44 44 45 46 48 48 49 52 53 52
271 283 295 306 316 325 332 338 342 346 350 353 356 359 2 5 8 11 14 16 19 22 25 27 30 32 34 36 37 39 40 42 45 48 50 50 51 51 53 56 57 57 57 56
Height
5751 5753 5754 5758 5759 5760 5760 5759 5760 5759 5758 5757 5755 5756 5758 5759 5761 5762 5763 5764 5764 5765 5766 5766 5767 5767 5767 5768 5768 5767 5767 5766 5765 5764 5763 5761 5759 5757 5755 5753 5750 5747 5744 5741
5753 5754 5755 5756 5757 5757 5757 5757 5756 5756 5755 5753 5751 5751 5752 5753 5754 5755 5755 5756 5756 5756 5757 5757 5758 5758 5758 5758 5758 5758 5757 5756 5755 5754 5752 5751 5749 5747 5744 5742 5739 5736 5733 5729
5753 5755 5755 5756 5755 5755 5754 5753 5753 5752 5750 5747 5747 5746 5747 5747 5747 5748 5748 5748 5748 5748 5748 5748 5749 5749 5749 5749 5748 5748 5747 5746 5745 5744 5742 5741 5739 5737 5734 5732 5729 5725 5722 5718
5754 5755 5754 5756 5753 5752 5750 5749 5748 5746 5745 5743 5742 5741 5740 5740 5740 5741 5741 5740 5740 5740 5740 5740 5740 5740 5740 5740 5739 5739 5738 5737 5736 5735 5733 5731 5729 5727 5724 5721 5718 5715 5711 5707
5754 5753 5752 5751 5750 5749 5747 5745 5742 5741 5739 5738 5736 5736 5734 5734 5734 5734 5734 5733 5733 5733 5733 5733 5733 5732 5732 5731 5731 5730 5729 5728 5727 5726 5724 5722 5720 5718 5715 5712 5709 5705 5701 5697
5754 5752 5751 5750 5747 5745 5744 5741 5738 5736 5734 5733 5731 5730 5729 5728 5728 5728 5727 5727 5727 5726 5726 5726 5726 5725 5725 5724 5724 5723 5722 5721 5720 5718 5717 5714 5712 5709 5706 5703 5700 5696 5691 5686
5753 5751 5749 5747 5744 5743 5741 5739 5735 5732 5730 5728 5726 5726 5725 5723 5723 5723 5722 5722 5721 5721 5720 5720 5720 5719 5719 5718 5717 5716 5715 5714 5713 5711 5709 5707 5705 5702 5699 5695 5691 5687 5682 5677
5753 5750 5750 5745 5742 5740 5737 5733 5731 5728 5726 5724 5723 5721 5720 5720 5719 5719 5718 5718 5717 5716 5716 5715 5714 5714 5713 5712 5711 5710 5709 5708 5706 5705 5703 5700 5698 5695 5692 5688 5684 5679 5674 5669
5753 5751 5747 5743 5740 5737 5733 5731 5728 5725 5723 5722 5720 5719 5718 5717 5716 5715 5715 5714 5713 5712 5712 5711 5710 5709 5708 5707 5706 5705 5703 5702 5701 5699 5697 5694 5692 5689 5685 5682 5678 5674 5669 5664
5751 5748 5745 5742 5738 5735 5732 5729 5726 5724 5722 5720 5718 5717 5715 5714 5713 5712 5712 5711 5710 5709 5708 5707 5706 5704 5703 5702 5701 5700 5698 5697 5696 5694 5692 5689 5687 5684 5680 5677 5673 5670 5666 5661
5751 5748 5744 5741 5737 5734 5730 5727 5725 5722 5720 5718 5717 5715 5714 5712 5711 5710 5709 5708 5706 5705 5704 5702 5701 5700 5699 5698 5696 5695 5694 5693 5691 5690 5687 5685 5682 5680 5677 5673 5670 5667 5663 5660
5751 5748 5744 5741 5736 5733 5730 5727 5724 5722 5719 5717 5716 5714 5713 5711 5710 5708 5707 5705 5703 5702 5700 5699 5697 5696 5695 5694 5692 5691 5690 5689 5688 5686 5684 5682 5679 5677 5674 5671 5668 5665 5663 5660
5751 5747 5744 5740 5736 5733 5729 5726 5724 5721 5719 5717 5715 5713 5712 5710 5708 5707 5705 5703 5701 5699 5698 5696 5694 5692 5691 5690 5689 5688 5687 5686 5684 5683 5681 5679 5677 5675 5673 5670 5668 5665 5663 5661
5751 5748 5744 5740 5737 5733 5729 5726 5724 5721 5718 5717 5715 5713 5711 5709 5707 5705 5703 5701 5699 5697 5695 5693 5691 5689 5687 5686 5685 5684 5683 5682 5681 5680 5679 5677 5676 5674 5672 5670 5668 5666 5664 5662
5751 5748 5745 5741 5737 5733 5730 5727 5724 5721 5719 5717 5715 5713 5711 5709 5706 5704 5702 5699 5697 5695 5692 5690 5688 5686 5684 5682 5682 5681 5680 5680 5679 5678 5677 5676 5674 5673 5671 5670 5668 5666 5665 5663
5751 5748 5745 5742 5738 5734 5731 5727 5724 5722 5719 5717 5715 5713 5711 5708 5706 5703 5700 5698 5695 5693 5690 5688 5685 5683 5681 5680 5679 5678 5678 5677 5677 5676 5675 5674 5673 5672 5671 5670 5668 5667 5665 5664
5752 5749 5746 5742 5739 5735 5731 5728 5725 5722 5720 5718 5716 5714 5711 5709 5706 5703 5700 5697 5694 5691 5688 5686 5684 5681 5680 5678 5677 5677 5676 5676 5675 5675 5674 5673 5673 5672 5671 5669 5668 5667 5666 5665
5752 5749 5746 5743 5739 5736 5732 5729 5726 5723 5721 5719 5717 5714 5712 5709 5706 5703 5700 5696 5693 5690 5687 5684 5682 5680 5678 5677 5676 5675 5675 5674 5674 5673 5673 5673 5672 5671 5670 5669 5669 5668 5667 5665
5751 5749 5746 5743 5740 5737 5733 5730 5727 5724 5722 5720 5718 5715 5713 5710 5707 5703 5700 5697 5693 5690 5687 5684 5681 5679 5677 5675 5674 5674 5673 5673 5673 5672 5672 5672 5671 5671 5670 5669 5669 5668 5667 5666
5751 5749 5747 5744 5741 5737 5734 5731 5728 5725 5723 5721 5719 5716 5714 5711 5708 5704 5701 5698 5694 5690 5687 5683 5681 5678 5676 5674 5673 5673 5672 5672 5671 5671 5671 5671 5670 5670 5670 5669 5668 5668 5667 5666
5751 5749 5747 5744 5741 5738 5735 5732 5729 5727 5724 5722 5720 5717 5715 5712 5709 5706 5702 5699 5695 5691 5688 5684 5681 5679 5676 5674 5673 5672 5671 5671 5670 5670 5670 5670 5670 5669 5669 5669 5668 5667 5667 5666
5750 5749 5747 5744 5742 5739 5736 5733 5730 5728 5725 5723 5721 5718 5716 5713 5710 5707 5704 5701 5697 5693 5690 5687 5683 5680 5678 5675 5674 5673 5671 5671 5670 5670 5669 5669 5669 5669 5668 5668 5667 5667 5666 5665
5749 5748 5746 5744 5742 5739 5736 5734 5731 5729 5726 5724 5722 5720 5717 5715 5712 5709 5706 5703 5699 5696 5693 5689 5686 5683 5680 5678 5676 5674 5673 5671 5671 5670 5670 5669 5669 5669 5668 5668 5667 5667 5666 5665
5747 5747 5745 5744 5742 5739 5737 5734 5732 5729 5727 5725 5723 5721 5718 5716 5714 5711 5708 5705 5702 5698 5695 5692 5689 5686 5683 5681 5679 5677 5675 5673 5672 5671 5671 5670 5669 5669 5668 5668 5667 5667 5666 5666
5745 5745 5744 5743 5741 5739 5737 5734 5732 5730 5728 5726 5724 5721 5719 5717 5715 5713 5710 5707 5704 5701 5698 5695 5692 5689 5687 5684 5682 5679 5677 5676 5674 5673 5672 5671 5671 5670 5669 5669 5668 5668 5667 5667
5743 5743 5742 5741 5740 5738 5736 5734 5732 5730 5728 5726 5724 5722 5720 5718 5716 5714 5712 5709 5707 5704 5701 5698 5695 5692 5690 5687 5685 5683 5681 5679 5677 5676 5675 5674 5673 5672 5671 5670 5670 5669 5669 5668
5740 5740 5740 5739 5738 5737 5735 5733 5732 5730 5728 5726 5724 5723 5721 5719 5717 5715 5713 5711 5709 5707 5704 5701 5698 5696 5693 5691 5688 5686 5684 5682 5681 5679 5678 5676 5675 5674 5674 5673 5672 5671 5671 5670